Wetterdaten: Februar 2012
Datum Temp Feuchte Luftdruck Regen Wind Richtung Sonnenschein UV Solar Windben
01.02.2012 -8,8 C 64 % 1033,4 hPa 0,0 l/m 8,4 km/h NO 6,83 h 0,9 UV-I 196 W/m 24,5 km/h
02.02.2012 -10,9 C 71 % 1035,7 hPa 0,0 l/m 1,7 km/h NO 7,00 h 0,9 UV-I 197 W/m 7,3 km/h
03.02.2012 -9,9 C 86 % 1037,3 hPa 0,0 l/m 0,1 km/h NW 5,42 h 0,8 UV-I 168 W/m 0,4 km/h
04.02.2012 -11,7 C 85 % 1038,6 hPa 0,0 l/m 0,0 km/h N-NO 2,58 h 0,7 UV-I 128 W/m 0,8 km/h
05.02.2012 -10,3 C 77 % 1035,0 hPa 0,0 l/m 2,2 km/h SO 7,08 h 0,8 UV-I 200 W/m 8,0 km/h
06.02.2012 -12,8 C 78 % 1036,9 hPa 0,0 l/m 1,0 km/h SO 6,92 h 0,7 UV-I 203 W/m 3,6 km/h
07.02.2012 -10,4 C 82 % 1040,5 hPa 0,0 l/m 4,7 km/h N-NO 1,92 h 0,7 UV-I 124 W/m 15,3 km/h
08.02.2012 -7,1 C 81 % 1039,4 hPa 0,0 l/m 2,2 km/h NO 5,17 h 0,8 UV-I 189 W/m 8,1 km/h
09.02.2012 -4,8 C 86 % 1036,5 hPa 0,0 l/m 7,3 km/h N 0,25 h 0,6 UV-I 53 W/m 19,7 km/h
10.02.2012 -8,8 C 78 % 1039,7 hPa 0,0 l/m 0,5 km/h N-NO 7,00 h 0,9 UV-I 220 W/m 6,4 km/h
11.02.2012 -9,6 C 85 % 1035,9 hPa 0,0 l/m 0,7 km/h NO 4,92 h 0,9 UV-I 182 W/m 6,4 km/h
12.02.2012 -6,7 C 88 % 1030,6 hPa 0,0 l/m 2,0 km/h W 2,00 h 0,8 UV-I 117 W/m 7,6 km/h
13.02.2012 -1,4 C 97 % 1019,0 hPa 1,2 l/m 0,3 km/h W 0,00 h 0,0 UV-I 18 W/m 3,2 km/h
14.02.2012 0,5 C 99 % 1012,2 hPa 3,2 l/m 7,7 km/h W 0,00 h 0,5 UV-I 49 W/m 17,7 km/h
15.02.2012 1,3 C 94 % 1010,3 hPa 5,2 l/m 13,2 km/h N-NW 0,00 h 0,6 UV-I 53 W/m 28,6 km/h
16.02.2012 2,0 C 98 % 1021,9 hPa 2,2 l/m 4,2 km/h W 0,00 h 0,7 UV-I 72 W/m 16,5 km/h
17.02.2012 3,5 C 99 % 1020,0 hPa 3,8 l/m 1,3 km/h W 0,33 h 0,7 UV-I 49 W/m 8,8 km/h
18.02.2012 5,0 C 95 % 1011,3 hPa 0,4 l/m 10,3 km/h S-SW 0,00 h 0,6 UV-I 52 W/m 18,5 km/h
19.02.2012 0,1 C 97 % 1019,1 hPa 6,2 l/m 4,3 km/h W 0,00 h 0,6 UV-I 56 W/m 13,3 km/h
20.02.2012 0,0 C 87 % 1032,4 hPa 0,0 l/m 1,9 km/h S 2,33 h 1,0 UV-I 154 W/m 12,1 km/h
21.02.2012 3,3 C 86 % 1029,0 hPa 0,0 l/m 3,2 km/h S-SW 0,00 h 0,8 UV-I 90 W/m 13,7 km/h
22.02.2012 5,3 C 76 % 1023,8 hPa 0,0 l/m 6,0 km/h S-SW 3,92 h 1,2 UV-I 194 W/m 16,5 km/h
23.02.2012 6,4 C 99 % 1021,0 hPa 9,2 l/m 7,5 km/h W 0,00 h 0,6 UV-I 27 W/m 25,4 km/h
24.02.2012 7,5 C 100 % 1022,1 hPa 7,2 l/m 11,7 km/h W-SW 0,00 h 0,5 UV-I 27 W/m 29,0 km/h
25.02.2012 3,8 C 95 % 1021,6 hPa 0,0 l/m 1,5 km/h NW 0,00 h 0,8 UV-I 103 W/m 6,8 km/h
26.02.2012 1,7 C 96 % 1024,8 hPa 5,2 l/m 1,8 km/h NW 1,83 h 0,9 UV-I 119 W/m 10,5 km/h
27.02.2012 4,1 C 96 % 1023,8 hPa 1,6 l/m 1,3 km/h S-SW 0,00 h 0,7 UV-I 87 W/m 8,1 km/h
28.02.2012 6,8 C 100 % 1021,9 hPa 4,2 l/m 5,3 km/h W 0,00 h 0,5 UV-I 31 W/m 21,7 km/h
29.02.2012 8,6 C 100 % 1024,8 hPa 1,0 l/m 1,0 km/h W 0,00 h 0,7 UV-I 62 W/m 5,6 km/h
Min-Datum 07.02.12 01.02.12 15.02.12 13 Tage 01.02.12 - - - - 02.02.12
Min-Zeit 04:00 14:45 03:55 - 00:06 - - - - 04:25
Minimum -17,5 C 50 % 1002,2 hPa - 0,0 km/h - - - - 0,0 km/h
Max-Datum 29.02.12 04.02.12 07.02.12 23.02.12 15.02.12 - 05.02.12 20.02.12 26.02.12 15.02.12
Max-Zeit 13:30 07:50 21:25 02:20 04:40 - 15:55 12:35 13:55 04:55
Maximum 9,3 C 100 % 1041,2 hPa 9,2 l/m 29,6 km/h
N-NW
- 7,00 h 2,0 UV-I 589 W/m 51,5 km/h
N-NW
Durchschnitt -1,8 C 89 % 1027,5 hPa #50,6 l/m 3,9 km/h W #65:30 h 0,7 UV-I 111 W/m 12,6 km/h

Durchschnitt Minimum Temp.-4,9 C
Durchschnitt Maximum Temp.0,8 C